Tracking 19794 objects as of 23-Jul-2019
HD Live streaming from Space Station
objects crossing your sky now

NOAA 16 DEB

Track NOAA 16 DEB now!
10-day predictions


NORAD ID: 41258
Int'l Code: 2000-055FJ
Perigee: 767.9 km
Apogee: 856.3 km
Inclination: 99.0 °
Period: 101.0 minutes
Semi major axis: 7183 km
RCS: Unknown
Launch date: September 21, 2000
Source: United States (US)
Launch site: AIR FORCE WESTERN TEST RANGE (AFWTR)

Note: This is SATELLITE DEBRIS
aabbcc
Your satellite tracking list
Your tracking list is empty




NASA's NSSDC Master Catalog

Two Line Element Set (TLE):
1 41258U 00055FJ  19203.78170250  .00001103  00000-0  47204-3 0  9990
2 41258  98.9607 316.9218 0061517 251.9031 107.5441 14.26049362184509
Source of the keplerian elements: AFSPC